Hourly Data Report for October 28, 2016

All times are specified in Local Standard Time (LST). Add 1 hour to adjust for Daylight Saving Time where and when it is observed.

KUGLUKTUK A
NUNAVUT

67°49'00.000" N
115°08'38.000" W
22.60 m
2300903
71938
YCO

Download Data

Hourly Data (October 2016)
Hourly Data Report for October 28, 2016
Temp Definition
°C
Dew Point Temp Definition
°C
Rel Hum Definition
%
Wind Dir Definition
10's deg

Wind Spd Definition
km/h
Visibility Definition
km
Stn Press Definition
kPa
Hmdx Definition


Wind Chill Definition


Weather Definition


TIME
00:00 Legend Double Dagger -0.4 -2.3 87 21 18 24.1 101.20   -5 Snow Grains
01:00 Legend Double Dagger -0.2 -2.3 86 21 21 24.1 101.17   -6 Snow Grains
02:00 Legend Double Dagger 0.0 -2.4 84 22 23 24.1 101.10   -6 Cloudy
03:00 Legend Double Dagger -0.5 -2.9 84 22 19 24.1 101.10   -6 LegendNANA
04:00 Legend Double Dagger -0.4 -2.8 84 23 26 24.1 101.04   -7 LegendNANA
05:00 Legend Double Dagger -0.7 -2.8 86 23 25 24.1 101.01   -7 Cloudy
06:00 Legend Double Dagger -0.6 -2.7 86 24 23 24.1 100.97   -6 LegendNANA
07:00 Legend Double Dagger -1.4 -2.8 90 28 30 4.8 100.98   -8 Snow
08:00 Legend Double Dagger -2.7 -5.0 84 27 18 24.1 100.96   -8 Snow,Blowing Snow
09:00 Legend Double Dagger -4.4 -6.6 85 29 27 24.1 100.95   -12 Blowing Snow
10:00 Legend Double Dagger -4.0 -5.4 90 27 26 24.1 100.96   -11 LegendNANA
11:00 Legend Double Dagger -3.7 -5.3 89 26 22 24.1 100.97   -10 Cloudy
12:00 Legend Double Dagger -2.8 -4.4 89 26 18 16.1 100.96   -8 Freezing Drizzle,Snow Grains
13:00 Legend Double Dagger -1.5 -3.9 84 32 26 19.3 100.99   -8 Snow Grains
14:00 Legend Double Dagger -1.9 -4.3 84 33 27 16.1 101.00   -9 Freezing Drizzle,Snow Grains
15:00 Legend Double Dagger -2.0 -4.0 86 33 25 19.3 101.02   -8 Freezing Drizzle,Snow Grains
16:00 Legend Double Dagger -2.0 -3.9 87 34 27 16.1 101.05   -9 Freezing Drizzle,Snow Grains
17:00 Legend Double Dagger -2.0 -3.0 93 35 30 16.1 101.06   -9 Freezing Drizzle
18:00 Legend Double Dagger -2.7 -4.3 89 8 33 12.9 101.11   -10 Snow Grains,Blowing Snow
19:00 Legend Double Dagger -3.6 -5.9 84 8 35 16.1 101.20   -12 Snow,Blowing Snow
20:00 Legend Double Dagger -4.3 -7.3 80 9 30 16.1 101.31   -12 Snow,Blowing Snow
21:00 Legend Double Dagger -4.7 -7.5 81 9 30 16.1 101.42   -13 Snow,Blowing Snow
22:00 Legend Double Dagger -5.2 -8.8 76 8 30 16.1 101.54   -13 Snow Grains,Blowing Snow
23:00 Legend Double Dagger -5.5 -9.8 72 8 29 16.1 101.63   -14 Snow Grains,Blowing Snow

Notes on Data Quality.

Legend

  • E = Estimated
  • M = Missing
  • NA = Not Available
  • ‡ = Partner data that is not subject to review by the National Climate Archives
Date modified: